Regional Weather Roundup
Issued by NWS

Home | Current Version | Previous Version | Text Only | Print | Product List | Glossary Off
Versions: 1 2 3 4 5 6 7 8 9 10 11 12 13 14 15 16 17 18 19 20 21 22 23 24 25 26 27 28 29 30 31 32 33 34 35 36 37 38 39 40 41 42 43 44 45 46 47 48 49 50

000
ASUS43 KBIS 300602
RWRND

NORTH DAKOTA REGIONAL WEATHER ROUNDUP
NATIONAL WEATHER SERVICE BISMARCK ND
100 AM CDT SAT JUL 30 2016

NOTE: "FAIR" INDICATES FEW OR NO CLOUDS BELOW 12,000 FEET WITH NO
SIGNIFICANT WEATHER AND/OR OBSTRUCTIONS TO VISIBILITY.


NDZ001>003-009>011-017-300700-
NORTHWEST NORTH DAKOTA

CITY           SKY/WX    TMP DP  RH WIND       PRES   REMARKS
WILLISTON      CLEAR     62  56  80 CALM      29.95F
6HR MIN TEMP:  62; 6HR MAX TEMP:  83;

MINOT          PTCLDY    66  61  84 SE5       29.95S
MINOT AFB      CLEAR     58  55  91 S5        29.94S
$$

NDZ018>021-031>035-040>046-300700-
SOUTHWEST NORTH DAKOTA

CITY           SKY/WX    TMP DP  RH WIND       PRES   REMARKS
BISMARCK       CLOUDY    65  61  87 NE5       29.96F
6HR MIN TEMP:  65; 6HR MAX TEMP:  79;

DICKINSON      CLEAR     59  57  93 S5        29.95F
GARRISON         N/A     66  65  96 W9        29.97R
6HR MIN TEMP:  66; 6HR MAX TEMP:  78;

HETTINGER ARPT CLEAR     63  58  83 CALM      29.98F
$$

NDZ004>008-012>016-024-026-027-054-300700-
NORTHEAST NORTH DAKOTA

CITY           SKY/WX    TMP DP  RH WIND       PRES   REMARKS
GRAND FORKS    CLEAR     61  56  83 S5        29.98S
GRND FRKS AFB  CLEAR     61  56  84 S5        29.98F
DEVILS LAKE    CLOUDY    68  63  84 SE8       29.98F
$$

NDZ022-023-025-028>030-036>039-047>053-300700-
SOUTHEAST NORTH DAKOTA

CITY           SKY/WX    TMP DP  RH WIND       PRES   REMARKS
FARGO          CLOUDY    70  62  76 S6        30.00S
6HR MIN TEMP:  69; 6HR MAX TEMP:  80; 6HR PCP: TRACE;

JAMESTOWN      PTCLDY    63  60  90 S3        29.99F
$$





USA.gov is the U.S. government's official web portal to all federal, state and local government web resources and services.